Year,Month,Day,Hour,Minute,Value (Times are PST for temperature in C)
2012,11,07,00,00,5.70
2012,11,07,00,01,5.60
2012,11,07,00,02,5.60
2012,11,07,00,04,5.60
2012,11,07,00,05,5.60
2012,11,07,00,06,5.60
2012,11,07,00,07,5.60
2012,11,07,00,08,5.60
2012,11,07,00,10,5.50
2012,11,07,00,11,5.50
2012,11,07,00,12,5.50
2012,11,07,00,14,5.40
2012,11,07,00,15,5.40
2012,11,07,00,16,5.40
2012,11,07,00,18,5.50
2012,11,07,00,19,5.50
2012,11,07,00,20,5.50
2012,11,07,00,22,5.50
2012,11,07,00,23,5.50
2012,11,07,00,25,5.50
2012,11,07,00,26,5.60
2012,11,07,00,27,5.60
2012,11,07,00,28,5.60
2012,11,07,00,29,5.70
2012,11,07,00,31,5.70
2012,11,07,00,32,5.70
2012,11,07,00,33,5.80
2012,11,07,00,35,5.70
2012,11,07,00,36,5.70
2012,11,07,00,37,5.70
2012,11,07,00,38,5.70
2012,11,07,00,39,5.70
2012,11,07,00,40,5.60
2012,11,07,00,41,5.60
2012,11,07,00,42,5.60
2012,11,07,00,43,5.60
2012,11,07,00,44,5.60
2012,11,07,00,45,5.60
2012,11,07,00,46,5.60
2012,11,07,00,47,5.60
2012,11,07,00,49,5.50
2012,11,07,00,50,5.50
2012,11,07,00,51,5.40
2012,11,07,00,53,5.40
2012,11,07,00,54,5.40
2012,11,07,00,55,5.50
2012,11,07,00,56,5.50
2012,11,07,00,58,5.50
2012,11,07,01,00,5.40
2012,11,07,01,01,5.40
2012,11,07,01,02,5.40
2012,11,07,01,03,5.40
2012,11,07,01,04,5.40
2012,11,07,01,05,5.40
2012,11,07,01,06,5.30
2012,11,07,01,07,5.30
2012,11,07,01,09,5.30
2012,11,07,01,10,5.30
2012,11,07,01,11,5.20
2012,11,07,01,12,5.20
2012,11,07,01,13,5.20
2012,11,07,01,14,5.20
2012,11,07,01,15,5.10
2012,11,07,01,16,5.10
2012,11,07,01,17,5.10
2012,11,07,01,18,5.10
2012,11,07,01,20,5.10
2012,11,07,01,21,5.00
2012,11,07,01,22,4.90
2012,11,07,01,24,4.90
2012,11,07,01,25,4.90
2012,11,07,01,26,4.90
2012,11,07,01,27,4.80
2012,11,07,01,29,4.80
2012,11,07,01,30,4.80
2012,11,07,01,31,4.80
2012,11,07,01,33,4.70
2012,11,07,01,34,4.70
2012,11,07,01,35,4.70
2012,11,07,01,37,4.70
2012,11,07,01,38,4.70
2012,11,07,01,39,4.70
2012,11,07,01,40,4.80
2012,11,07,01,41,4.70
2012,11,07,01,42,4.70
2012,11,07,01,43,4.70
2012,11,07,01,44,4.70
2012,11,07,01,45,4.70
2012,11,07,01,46,4.70
2012,11,07,01,47,4.70
2012,11,07,01,48,4.70
2012,11,07,01,50,4.70
2012,11,07,01,51,4.70
2012,11,07,01,52,4.60
2012,11,07,01,53,4.60
2012,11,07,01,55,4.60
2012,11,07,01,56,4.60
2012,11,07,01,57,4.60
2012,11,07,01,59,4.50
2012,11,07,02,00,4.50
2012,11,07,02,02,4.50
2012,11,07,02,04,4.40
2012,11,07,02,05,4.40
2012,11,07,02,06,4.40
2012,11,07,02,08,4.50
2012,11,07,02,09,4.50
2012,11,07,02,10,4.50
2012,11,07,02,11,4.60
2012,11,07,02,12,4.60
2012,11,07,02,13,4.60
2012,11,07,02,15,4.70
2012,11,07,02,16,4.70
2012,11,07,02,17,4.70
2012,11,07,02,18,4.70
2012,11,07,02,19,4.70
2012,11,07,02,20,4.70
2012,11,07,02,22,4.70
2012,11,07,02,23,4.70
2012,11,07,02,24,4.70
2012,11,07,02,26,4.70
2012,11,07,02,27,4.70
2012,11,07,02,28,4.70
2012,11,07,02,30,4.60
2012,11,07,02,31,4.60
2012,11,07,02,32,4.60
2012,11,07,02,33,4.60
2012,11,07,02,35,4.60
2012,11,07,02,36,4.60
2012,11,07,02,37,4.60
2012,11,07,02,39,4.60
2012,11,07,02,40,4.60
2012,11,07,02,41,4.60
2012,11,07,02,42,4.60
2012,11,07,02,43,4.60
2012,11,07,02,44,4.60
2012,11,07,02,45,4.60
2012,11,07,02,46,4.60
2012,11,07,02,47,4.60
2012,11,07,02,48,4.60
2012,11,07,02,49,4.60
2012,11,07,02,50,4.60
2012,11,07,02,51,4.60
2012,11,07,02,53,4.60
2012,11,07,02,54,4.50
2012,11,07,02,55,4.50
2012,11,07,02,57,4.40
2012,11,07,02,58,4.40
2012,11,07,03,00,4.40
2012,11,07,03,02,4.40
2012,11,07,03,03,4.40
2012,11,07,03,05,4.40
2012,11,07,03,06,4.40
2012,11,07,03,07,4.30
2012,11,07,03,08,4.30
2012,11,07,03,10,4.30
2012,11,07,03,11,4.30
2012,11,07,03,12,4.30
2012,11,07,03,14,4.20
2012,11,07,03,15,4.20
2012,11,07,03,16,4.20
2012,11,07,03,17,4.20
2012,11,07,03,18,4.20
2012,11,07,03,20,4.20
2012,11,07,03,21,4.20
2012,11,07,03,22,4.20
2012,11,07,03,24,4.20
2012,11,07,03,25,4.20
2012,11,07,03,26,4.10
2012,11,07,03,28,4.10
2012,11,07,03,29,4.00
2012,11,07,03,30,4.00
2012,11,07,03,32,3.90
2012,11,07,03,33,3.90
2012,11,07,03,34,3.80
2012,11,07,03,36,3.80
2012,11,07,03,37,3.80
2012,11,07,03,38,3.70
2012,11,07,03,39,3.70
2012,11,07,03,41,3.70
2012,11,07,03,42,3.60
2012,11,07,03,43,3.60
2012,11,07,03,44,3.60
2012,11,07,03,45,3.60
2012,11,07,03,46,3.60
2012,11,07,03,47,3.60
2012,11,07,03,49,3.60
2012,11,07,03,50,3.60
2012,11,07,03,51,3.60
2012,11,07,03,52,3.60
2012,11,07,03,53,3.60
2012,11,07,03,55,3.60
2012,11,07,03,56,3.60
2012,11,07,03,57,3.60
2012,11,07,03,59,3.50
2012,11,07,04,00,3.50
2012,11,07,04,01,3.40
2012,11,07,04,03,3.30
2012,11,07,04,04,3.30
2012,11,07,04,05,3.30
2012,11,07,04,06,3.30
2012,11,07,04,08,3.20
2012,11,07,04,10,3.20
2012,11,07,04,12,3.10
2012,11,07,04,13,3.10
2012,11,07,04,14,3.10
2012,11,07,04,15,3.10
2012,11,07,04,16,3.10
2012,11,07,04,17,3.00
2012,11,07,04,18,3.00
2012,11,07,04,19,3.00
2012,11,07,04,20,2.90
2012,11,07,04,21,2.90
2012,11,07,04,22,2.90
2012,11,07,04,23,2.90
2012,11,07,04,24,2.90
2012,11,07,04,26,2.80
2012,11,07,04,27,2.80
2012,11,07,04,28,2.80
2012,11,07,04,30,2.80
2012,11,07,04,31,2.80
2012,11,07,04,32,2.80
2012,11,07,04,34,2.80
2012,11,07,04,35,2.80
2012,11,07,04,36,2.80
2012,11,07,04,38,2.80
2012,11,07,04,39,2.80
2012,11,07,04,40,2.90
2012,11,07,04,41,2.90
2012,11,07,04,43,3.00
2012,11,07,04,44,3.00
2012,11,07,04,46,3.10
2012,11,07,04,47,3.10
2012,11,07,04,48,3.20
2012,11,07,04,49,3.20
2012,11,07,04,50,3.20
2012,11,07,04,51,3.20
2012,11,07,04,53,3.20
2012,11,07,04,54,3.20
2012,11,07,04,55,3.20
2012,11,07,04,57,3.20
2012,11,07,04,59,3.20
2012,11,07,05,00,3.20
2012,11,07,05,01,3.20
2012,11,07,05,02,3.20
2012,11,07,05,03,3.20
2012,11,07,05,05,3.20
2012,11,07,05,06,3.10
2012,11,07,05,07,3.20
2012,11,07,05,09,3.20
2012,11,07,05,10,3.20
2012,11,07,05,11,3.20
2012,11,07,05,12,3.20
2012,11,07,05,14,3.20
2012,11,07,05,15,3.20
2012,11,07,05,16,3.20
2012,11,07,05,18,3.20
2012,11,07,05,19,3.20
2012,11,07,05,20,3.20
2012,11,07,05,21,3.10
2012,11,07,05,22,3.10
2012,11,07,05,23,3.10
2012,11,07,05,24,3.00
2012,11,07,05,25,3.00
2012,11,07,05,26,2.90
2012,11,07,05,27,2.90
2012,11,07,05,28,2.90
2012,11,07,05,29,2.90
2012,11,07,05,30,2.90
2012,11,07,05,31,2.90
2012,11,07,05,32,2.80
2012,11,07,05,33,2.80
2012,11,07,05,34,2.80
2012,11,07,05,36,2.70
2012,11,07,05,37,2.70
2012,11,07,05,38,2.70
2012,11,07,05,40,2.60
2012,11,07,05,41,2.60
2012,11,07,05,42,2.60
2012,11,07,05,43,2.60
2012,11,07,05,44,2.60
2012,11,07,05,45,2.50
2012,11,07,05,46,2.50
2012,11,07,05,48,2.40
2012,11,07,05,49,2.40
2012,11,07,05,50,2.40
2012,11,07,05,52,2.30
2012,11,07,05,53,2.30
2012,11,07,05,54,2.30
2012,11,07,05,56,2.30
2012,11,07,05,57,2.20
2012,11,07,05,59,2.20
2012,11,07,06,00,2.20
2012,11,07,06,02,2.20
2012,11,07,06,03,2.20
2012,11,07,06,04,2.20
2012,11,07,06,05,2.20
2012,11,07,06,06,2.20
2012,11,07,06,07,2.20
2012,11,07,06,08,2.20
2012,11,07,06,09,2.20
2012,11,07,06,10,2.20
2012,11,07,06,11,2.20
2012,11,07,06,12,2.20
2012,11,07,06,13,2.10
2012,11,07,06,14,2.10
2012,11,07,06,15,2.10
2012,11,07,06,17,2.10
2012,11,07,06,18,2.10
2012,11,07,06,19,2.10
2012,11,07,06,21,2.10
2012,11,07,06,22,2.10
2012,11,07,06,23,2.10
2012,11,07,06,25,2.10
2012,11,07,06,26,2.10
2012,11,07,06,28,2.10
2012,11,07,06,29,2.10
2012,11,07,06,31,2.10
2012,11,07,06,32,2.10
2012,11,07,06,33,2.10
2012,11,07,06,34,2.00
2012,11,07,06,35,2.00
2012,11,07,06,36,2.00
2012,11,07,06,37,2.00
2012,11,07,06,38,2.00
2012,11,07,06,39,2.00
2012,11,07,06,40,2.10
2012,11,07,06,41,2.10
2012,11,07,06,42,2.10
2012,11,07,06,43,2.10
2012,11,07,06,44,2.10
2012,11,07,06,45,2.10
2012,11,07,06,46,2.10
2012,11,07,06,47,2.10
2012,11,07,06,48,2.10
2012,11,07,06,49,2.00
2012,11,07,06,50,2.00
2012,11,07,06,51,2.00
2012,11,07,06,52,2.00
2012,11,07,06,53,2.00
2012,11,07,06,54,1.90
2012,11,07,06,55,1.90
2012,11,07,06,56,1.90
2012,11,07,06,57,1.90
2012,11,07,06,58,1.90
2012,11,07,07,01,1.90
2012,11,07,07,02,1.90
2012,11,07,07,03,1.90
2012,11,07,07,04,1.90
2012,11,07,07,05,1.90
2012,11,07,07,06,1.90
2012,11,07,07,07,1.90
2012,11,07,07,08,1.90
2012,11,07,07,09,1.90
2012,11,07,07,10,1.90
2012,11,07,07,11,1.90
2012,11,07,07,12,1.90
2012,11,07,07,13,1.90
2012,11,07,07,14,1.90
2012,11,07,07,15,1.90
2012,11,07,07,16,2.00
2012,11,07,07,17,2.00
2012,11,07,07,18,2.00
2012,11,07,07,19,2.00
2012,11,07,07,20,2.00
2012,11,07,07,21,2.00
2012,11,07,07,23,2.10
2012,11,07,07,24,2.00
2012,11,07,07,25,2.10
2012,11,07,07,26,2.10
2012,11,07,07,27,2.10
2012,11,07,07,28,2.10
2012,11,07,07,29,2.10
2012,11,07,07,30,2.10
2012,11,07,07,31,2.10
2012,11,07,07,32,2.10
2012,11,07,07,33,2.10
2012,11,07,07,34,2.10
2012,11,07,07,35,2.10
2012,11,07,07,37,2.10
2012,11,07,07,39,2.10
2012,11,07,07,40,2.10
2012,11,07,07,42,2.10
2012,11,07,07,43,2.10
2012,11,07,07,45,2.10
2012,11,07,07,46,2.20
2012,11,07,07,47,2.20
2012,11,07,07,49,2.20
2012,11,07,07,50,2.20
2012,11,07,07,51,2.20
2012,11,07,07,52,2.20
2012,11,07,07,53,2.20
2012,11,07,07,54,2.10
2012,11,07,07,55,2.10
2012,11,07,07,56,2.10
2012,11,07,07,57,2.10
2012,11,07,07,58,2.10
2012,11,07,07,59,2.10
2012,11,07,08,00,2.10
2012,11,07,08,01,2.20
2012,11,07,08,02,2.20
2012,11,07,08,04,2.20
2012,11,07,08,05,2.20
2012,11,07,08,06,2.20
2012,11,07,08,07,2.20
2012,11,07,08,08,2.20
2012,11,07,08,09,2.20
2012,11,07,08,10,2.20
2012,11,07,08,11,2.20
2012,11,07,08,13,2.30
2012,11,07,08,14,2.30
2012,11,07,08,15,2.30
2012,11,07,08,17,2.30
2012,11,07,08,18,2.30
2012,11,07,08,20,2.30
2012,11,07,08,21,2.30
2012,11,07,08,22,2.40
2012,11,07,08,24,2.40
2012,11,07,08,25,2.40
2012,11,07,08,26,2.40
2012,11,07,08,28,2.40
2012,11,07,08,30,2.40
2012,11,07,08,32,2.40
2012,11,07,08,34,2.40
2012,11,07,08,35,2.40
2012,11,07,08,36,2.40
2012,11,07,08,37,2.40
2012,11,07,08,39,2.50
2012,11,07,08,40,2.50
2012,11,07,08,41,2.60
2012,11,07,08,42,2.60
2012,11,07,08,43,2.60
2012,11,07,08,44,2.60
2012,11,07,08,45,2.60
2012,11,07,08,47,2.70
2012,11,07,08,48,2.70
2012,11,07,08,49,2.70
2012,11,07,08,50,2.70
2012,11,07,08,52,2.80
2012,11,07,08,53,2.80
2012,11,07,08,54,2.80
2012,11,07,08,55,2.80
2012,11,07,08,56,2.80
2012,11,07,08,57,2.80
2012,11,07,08,59,2.90
2012,11,07,09,00,2.90
2012,11,07,09,01,2.90
2012,11,07,09,02,2.90
2012,11,07,09,03,2.90
2012,11,07,09,05,2.90
2012,11,07,09,06,2.90
2012,11,07,09,07,2.90
2012,11,07,09,08,3.00
2012,11,07,09,09,3.00
2012,11,07,09,10,3.00
2012,11,07,09,11,3.00
2012,11,07,09,12,3.00
2012,11,07,09,13,3.10
2012,11,07,09,14,3.00
2012,11,07,09,15,3.00
2012,11,07,09,16,3.10
2012,11,07,09,17,3.10
2012,11,07,09,18,3.10
2012,11,07,09,19,3.10
2012,11,07,09,20,3.10
2012,11,07,09,21,3.10
2012,11,07,09,22,3.20
2012,11,07,09,23,3.20
2012,11,07,09,24,3.20
2012,11,07,09,25,3.20
2012,11,07,09,26,3.30
2012,11,07,09,27,3.30
2012,11,07,09,28,3.30
2012,11,07,09,29,3.30
2012,11,07,09,30,3.40
2012,11,07,09,31,3.40
2012,11,07,09,32,3.40
2012,11,07,09,33,3.40
2012,11,07,09,34,3.40
2012,11,07,09,35,3.40
2012,11,07,09,36,3.50
2012,11,07,09,37,3.50
2012,11,07,09,38,3.50
2012,11,07,09,39,3.50
2012,11,07,09,40,3.60
2012,11,07,09,41,3.60
2012,11,07,09,42,3.60
2012,11,07,09,43,3.60
2012,11,07,09,44,3.60
2012,11,07,09,45,3.60
2012,11,07,09,46,3.70
2012,11,07,09,47,3.70
2012,11,07,09,48,3.70
2012,11,07,09,49,3.70
2012,11,07,09,50,3.70
2012,11,07,09,51,3.70
2012,11,07,09,52,3.80
2012,11,07,09,53,3.80
2012,11,07,09,55,3.80
2012,11,07,09,56,3.80
2012,11,07,09,57,3.80
2012,11,07,09,59,3.80
2012,11,07,10,00,3.80
2012,11,07,10,01,3.80
2012,11,07,10,03,3.90
2012,11,07,10,04,3.90
2012,11,07,10,06,3.90
2012,11,07,10,07,3.90
2012,11,07,10,09,3.90
2012,11,07,10,10,3.90
2012,11,07,10,11,3.90
2012,11,07,10,13,3.90
2012,11,07,10,14,4.00
2012,11,07,10,15,4.00
2012,11,07,10,16,4.10
2012,11,07,10,17,4.10
2012,11,07,10,18,4.10
2012,11,07,10,20,4.10
2012,11,07,10,21,4.10
2012,11,07,10,22,4.20
2012,11,07,10,24,4.20
2012,11,07,10,25,4.20
2012,11,07,10,26,4.20
2012,11,07,10,27,4.20
2012,11,07,10,28,4.20
2012,11,07,10,29,4.30
2012,11,07,10,30,4.30
2012,11,07,10,31,4.30
2012,11,07,10,32,4.30
2012,11,07,10,33,4.30
2012,11,07,10,34,4.30
2012,11,07,10,35,4.30
2012,11,07,10,36,4.40
2012,11,07,10,37,4.40
2012,11,07,10,38,4.40
2012,11,07,10,40,4.40
2012,11,07,10,42,4.50
2012,11,07,10,43,4.50
2012,11,07,10,44,4.50
2012,11,07,10,45,4.50
2012,11,07,10,46,4.50
2012,11,07,10,48,4.60
2012,11,07,10,49,4.60
2012,11,07,10,50,4.60
2012,11,07,10,51,4.60
2012,11,07,10,52,4.60
2012,11,07,10,53,4.60
2012,11,07,10,54,4.60
2012,11,07,10,55,4.70
2012,11,07,10,57,4.70
2012,11,07,10,58,4.70
2012,11,07,10,59,4.70
2012,11,07,11,01,4.70
2012,11,07,11,02,4.70
2012,11,07,11,03,4.70
2012,11,07,11,04,4.70
2012,11,07,11,05,4.70
2012,11,07,11,07,4.70
2012,11,07,11,08,4.80
2012,11,07,11,09,4.80
2012,11,07,11,10,4.90
2012,11,07,11,12,4.90
2012,11,07,11,13,5.00
2012,11,07,11,15,5.00
2012,11,07,11,16,5.10
2012,11,07,11,17,5.10
2012,11,07,11,18,5.10
2012,11,07,11,20,5.10
2012,11,07,11,21,5.10
2012,11,07,11,22,5.10
2012,11,07,11,24,5.20
2012,11,07,11,25,5.20
2012,11,07,11,26,5.20
2012,11,07,11,28,5.30
2012,11,07,11,29,5.30
2012,11,07,11,30,5.30
2012,11,07,11,31,5.30
2012,11,07,11,32,5.30
2012,11,07,11,33,5.30
2012,11,07,11,34,5.30
2012,11,07,11,35,5.30
2012,11,07,11,36,5.30
2012,11,07,11,37,5.30
2012,11,07,11,38,5.40
2012,11,07,11,39,5.40
2012,11,07,11,40,5.40
2012,11,07,11,41,5.50
2012,11,07,11,42,5.60
2012,11,07,11,43,5.60
2012,11,07,11,44,5.60
2012,11,07,11,45,5.60
2012,11,07,11,46,5.70
2012,11,07,11,47,5.70
2012,11,07,11,48,5.70
2012,11,07,11,49,5.80
2012,11,07,11,50,5.80
2012,11,07,11,51,5.80
2012,11,07,11,52,5.80
2012,11,07,11,53,5.80
2012,11,07,11,54,5.80
2012,11,07,11,55,5.80
2012,11,07,11,56,5.80
2012,11,07,11,57,5.80
2012,11,07,11,58,5.80
2012,11,07,12,00,5.90
2012,11,07,12,01,5.90
2012,11,07,12,02,5.90
2012,11,07,12,03,5.90
2012,11,07,12,04,6.00
2012,11,07,12,05,6.10
2012,11,07,12,06,6.10
2012,11,07,12,07,6.10
2012,11,07,12,08,6.20
2012,11,07,12,09,6.20
2012,11,07,12,10,6.20
2012,11,07,12,11,6.20
2012,11,07,12,12,6.30
2012,11,07,12,13,6.30
2012,11,07,12,14,6.30
2012,11,07,12,15,6.30
2012,11,07,12,16,6.30
2012,11,07,12,17,6.30
2012,11,07,12,18,6.30
2012,11,07,12,19,6.30
2012,11,07,12,20,6.40
2012,11,07,12,21,6.40
2012,11,07,12,22,6.40
2012,11,07,12,24,6.40
2012,11,07,12,25,6.50
2012,11,07,12,26,6.50
2012,11,07,12,27,6.50
2012,11,07,12,28,6.60
2012,11,07,12,29,6.60
2012,11,07,12,30,6.60
2012,11,07,12,31,6.60
2012,11,07,12,32,6.60
2012,11,07,12,33,6.60
2012,11,07,12,35,6.70
2012,11,07,12,36,6.70
2012,11,07,12,37,6.70
2012,11,07,12,38,6.70
2012,11,07,12,39,6.70
2012,11,07,12,40,6.70
2012,11,07,12,41,6.70
2012,11,07,12,43,6.80
2012,11,07,12,44,6.80
2012,11,07,12,45,6.80
2012,11,07,12,46,6.80
2012,11,07,12,47,6.80
2012,11,07,12,48,6.80
2012,11,07,12,49,6.80
2012,11,07,12,50,6.80
2012,11,07,12,51,6.90
2012,11,07,12,52,6.90
2012,11,07,12,53,6.90
2012,11,07,12,55,7.00
2012,11,07,12,56,7.00
2012,11,07,12,57,7.10
2012,11,07,12,58,7.10
2012,11,07,12,59,7.10
2012,11,07,13,00,7.10
2012,11,07,13,01,7.20
2012,11,07,13,02,7.10
2012,11,07,13,03,7.20
2012,11,07,13,04,7.20
2012,11,07,13,06,7.20
2012,11,07,13,07,7.20
2012,11,07,13,08,7.30
2012,11,07,13,10,7.30
2012,11,07,13,11,7.30
2012,11,07,13,12,7.30
2012,11,07,13,14,7.30
2012,11,07,13,15,7.30
2012,11,07,13,16,7.30
2012,11,07,13,18,7.30
2012,11,07,13,19,7.30
2012,11,07,13,20,7.30
2012,11,07,13,22,7.40
2012,11,07,13,23,7.40
2012,11,07,13,24,7.40
2012,11,07,13,25,7.40
2012,11,07,13,26,7.40
2012,11,07,13,27,7.50
2012,11,07,13,28,7.50
2012,11,07,13,29,7.60
2012,11,07,13,30,7.60
2012,11,07,13,31,7.60
2012,11,07,13,32,7.60
2012,11,07,13,33,7.70
2012,11,07,13,34,7.70
2012,11,07,13,35,7.70
2012,11,07,13,37,7.70
2012,11,07,13,38,7.70
2012,11,07,13,39,7.70
2012,11,07,13,41,7.70
2012,11,07,13,42,7.70
2012,11,07,13,43,7.70
2012,11,07,13,45,7.70
2012,11,07,13,46,7.70
2012,11,07,13,47,7.70
2012,11,07,13,49,7.70
2012,11,07,13,50,7.70
2012,11,07,13,51,7.70
2012,11,07,13,53,7.70
2012,11,07,13,54,7.70
2012,11,07,13,55,7.70
2012,11,07,13,57,7.70
2012,11,07,13,58,7.70
2012,11,07,13,59,7.70
2012,11,07,14,01,7.70
2012,11,07,14,02,7.70
2012,11,07,14,03,7.70
2012,11,07,14,04,7.70
2012,11,07,14,05,7.70
2012,11,07,14,06,7.80
2012,11,07,14,07,7.80
2012,11,07,14,08,7.80
2012,11,07,14,09,7.80
2012,11,07,14,10,7.80
2012,11,07,14,11,7.80
2012,11,07,14,12,7.80
2012,11,07,14,13,7.80
2012,11,07,14,14,7.80
2012,11,07,14,16,7.80
2012,11,07,14,17,7.80
2012,11,07,14,18,7.80
2012,11,07,14,20,7.80
2012,11,07,14,21,7.80
2012,11,07,14,22,7.80
2012,11,07,14,24,7.80
2012,11,07,14,26,7.80
2012,11,07,14,28,7.80
2012,11,07,14,29,7.80
2012,11,07,14,30,7.80
2012,11,07,14,31,7.80
2012,11,07,14,32,7.80
2012,11,07,14,33,7.80
2012,11,07,14,34,7.80
2012,11,07,14,35,7.70
2012,11,07,14,36,7.70
2012,11,07,14,37,7.70
2012,11,07,14,38,7.60
2012,11,07,14,39,7.50
2012,11,07,14,40,7.50
2012,11,07,14,41,7.40
2012,11,07,14,43,7.20
2012,11,07,14,44,7.20
2012,11,07,14,45,7.20
2012,11,07,14,47,7.10
2012,11,07,14,48,7.00
2012,11,07,14,49,6.90
2012,11,07,14,51,6.90
2012,11,07,14,52,6.80
2012,11,07,14,53,6.80
2012,11,07,14,55,6.80
2012,11,07,14,56,6.80
2012,11,07,14,57,6.80
2012,11,07,14,59,6.90
2012,11,07,15,00,6.90
2012,11,07,15,01,6.90
2012,11,07,15,02,6.90
2012,11,07,15,03,6.90
2012,11,07,15,04,6.90
2012,11,07,15,05,6.90
2012,11,07,15,07,7.00
2012,11,07,15,08,7.00
2012,11,07,15,09,7.10
2012,11,07,15,11,7.10
2012,11,07,15,12,7.10
2012,11,07,15,13,7.10
2012,11,07,15,15,7.10
2012,11,07,15,16,7.10
2012,11,07,15,18,7.10
2012,11,07,15,19,7.10
2012,11,07,15,20,7.10
2012,11,07,15,21,7.10
2012,11,07,15,22,7.20
2012,11,07,15,23,7.20
2012,11,07,15,24,7.20
2012,11,07,15,25,7.20
2012,11,07,15,26,7.20
2012,11,07,15,27,7.20
2012,11,07,15,28,7.20
2012,11,07,15,30,7.20
2012,11,07,15,31,7.20
2012,11,07,15,32,7.20
2012,11,07,15,33,7.10
2012,11,07,15,34,7.10
2012,11,07,15,35,7.10
2012,11,07,15,36,7.00
2012,11,07,15,37,7.00
2012,11,07,15,38,6.90
2012,11,07,15,39,6.90
2012,11,07,15,40,6.90
2012,11,07,15,41,6.90
2012,11,07,15,42,6.80
2012,11,07,15,43,6.80
2012,11,07,15,44,6.80
2012,11,07,15,45,6.80
2012,11,07,15,46,6.80
2012,11,07,15,47,6.80
2012,11,07,15,48,6.70
2012,11,07,15,49,6.70
2012,11,07,15,50,6.70
2012,11,07,15,51,6.70
2012,11,07,15,52,6.70
2012,11,07,15,53,6.70
2012,11,07,15,54,6.70
2012,11,07,15,55,6.60
2012,11,07,15,56,6.60
2012,11,07,15,57,6.60
2012,11,07,15,58,6.60
2012,11,07,15,59,6.60
2012,11,07,16,00,6.60
2012,11,07,16,01,6.50
2012,11,07,16,02,6.50
2012,11,07,16,03,6.50
2012,11,07,16,04,6.40
2012,11,07,16,05,6.40
2012,11,07,16,06,6.40
2012,11,07,16,07,6.40
2012,11,07,16,08,6.40
2012,11,07,16,09,6.40
2012,11,07,16,10,6.40
2012,11,07,16,11,6.30
2012,11,07,16,12,6.30
2012,11,07,16,13,6.30
2012,11,07,16,14,6.30
2012,11,07,16,15,6.30
2012,11,07,16,16,6.30
2012,11,07,16,17,6.30
2012,11,07,16,18,6.30
2012,11,07,16,19,6.20
2012,11,07,16,20,6.30
2012,11,07,16,21,6.30
2012,11,07,16,22,6.30
2012,11,07,16,23,6.20
2012,11,07,16,24,6.30
2012,11,07,16,25,6.30
2012,11,07,16,26,6.20
2012,11,07,16,27,6.30
2012,11,07,16,28,6.20
2012,11,07,16,29,6.20
2012,11,07,16,30,6.30
2012,11,07,16,31,6.20
2012,11,07,16,32,6.20
2012,11,07,16,33,6.20
2012,11,07,16,34,6.20
2012,11,07,16,35,6.20
2012,11,07,16,36,6.20
2012,11,07,16,37,6.20
2012,11,07,16,38,6.20
2012,11,07,16,39,6.20
2012,11,07,16,40,6.20
2012,11,07,16,41,6.20
2012,11,07,16,42,6.20
2012,11,07,16,43,6.20
2012,11,07,16,44,6.20
2012,11,07,16,45,6.10
2012,11,07,16,46,6.10
2012,11,07,16,47,6.10
2012,11,07,16,48,6.10
2012,11,07,16,49,6.10
2012,11,07,16,50,6.10
2012,11,07,16,51,6.10
2012,11,07,16,52,6.00
2012,11,07,16,53,6.00
2012,11,07,16,54,6.00
2012,11,07,16,55,6.00
2012,11,07,16,56,6.00
2012,11,07,16,57,6.00
2012,11,07,16,58,5.90
2012,11,07,16,59,5.90
2012,11,07,17,00,5.90
2012,11,07,17,01,5.90
2012,11,07,17,02,5.90
2012,11,07,17,03,5.90
2012,11,07,17,04,5.90
2012,11,07,17,05,5.90
2012,11,07,17,06,5.90
2012,11,07,17,07,5.90
2012,11,07,17,08,5.90
2012,11,07,17,09,5.90
2012,11,07,17,10,5.90
2012,11,07,17,11,5.90
2012,11,07,17,12,5.90
2012,11,07,17,13,5.90
2012,11,07,17,14,5.90
2012,11,07,17,15,5.90
2012,11,07,17,16,5.90
2012,11,07,17,17,5.90
2012,11,07,17,18,5.90
2012,11,07,17,19,5.90
2012,11,07,17,20,5.90
2012,11,07,17,21,5.90
2012,11,07,17,22,5.90
2012,11,07,17,23,5.90
2012,11,07,17,24,5.90
2012,11,07,17,25,5.90
2012,11,07,17,26,6.00
2012,11,07,17,27,6.00
2012,11,07,17,28,6.00
2012,11,07,17,29,6.00
2012,11,07,17,30,6.00
2012,11,07,17,31,6.00
2012,11,07,17,32,6.00
2012,11,07,17,33,6.00
2012,11,07,17,34,6.00
2012,11,07,17,35,6.00
2012,11,07,17,36,6.00
2012,11,07,17,37,6.00
2012,11,07,17,38,5.90
2012,11,07,17,39,5.90
2012,11,07,17,40,5.90
2012,11,07,17,41,5.90
2012,11,07,17,42,5.90
2012,11,07,17,43,5.90
2012,11,07,17,44,5.90
2012,11,07,17,45,5.90
2012,11,07,17,46,5.90
2012,11,07,17,47,5.90
2012,11,07,17,48,5.90
2012,11,07,17,49,5.80
2012,11,07,17,50,5.80
2012,11,07,17,51,5.80
2012,11,07,17,52,5.80
2012,11,07,17,53,5.80
2012,11,07,17,54,5.80
2012,11,07,17,55,5.80
2012,11,07,17,56,5.80
2012,11,07,17,57,5.80
2012,11,07,17,58,5.80
2012,11,07,17,59,5.80
2012,11,07,18,00,5.80
2012,11,07,18,01,5.80
2012,11,07,18,02,5.80
2012,11,07,18,05,5.70
2012,11,07,18,06,5.70
2012,11,07,18,07,5.70
2012,11,07,18,08,5.70
2012,11,07,18,09,5.70
2012,11,07,18,10,5.70
2012,11,07,18,11,5.70
2012,11,07,18,12,5.70
2012,11,07,18,13,5.70
2012,11,07,18,14,5.70
2012,11,07,18,15,5.70
2012,11,07,18,16,5.60
2012,11,07,18,17,5.60
2012,11,07,18,18,5.60
2012,11,07,18,19,5.60
2012,11,07,18,20,5.60
2012,11,07,18,21,5.60
2012,11,07,18,22,5.60
2012,11,07,18,23,5.60
2012,11,07,18,24,5.60
2012,11,07,18,25,5.60
2012,11,07,18,26,5.60
2012,11,07,18,27,5.60
2012,11,07,18,28,5.60
2012,11,07,18,29,5.60
2012,11,07,18,30,5.60
2012,11,07,18,31,5.60
2012,11,07,18,32,5.60
2012,11,07,18,33,5.60
2012,11,07,18,34,5.60
2012,11,07,18,35,5.60
2012,11,07,18,36,5.60
2012,11,07,18,37,5.60
2012,11,07,18,38,5.60
2012,11,07,18,39,5.50
2012,11,07,18,40,5.50
2012,11,07,18,41,5.50
2012,11,07,18,42,5.50
2012,11,07,18,43,5.50
2012,11,07,18,44,5.50
2012,11,07,18,45,5.50
2012,11,07,18,46,5.40
2012,11,07,18,47,5.40
2012,11,07,18,48,5.40
2012,11,07,18,49,5.40
2012,11,07,18,50,5.40
2012,11,07,18,51,5.40
2012,11,07,18,52,5.40
2012,11,07,18,53,5.40
2012,11,07,18,54,5.40
2012,11,07,18,55,5.40
2012,11,07,18,56,5.40
2012,11,07,18,57,5.40
2012,11,07,18,58,5.40
2012,11,07,18,59,5.40
2012,11,07,19,00,5.40
2012,11,07,19,01,5.40
2012,11,07,19,02,5.40
2012,11,07,19,03,5.50
2012,11,07,19,04,5.40
2012,11,07,19,05,5.40
2012,11,07,19,06,5.40
2012,11,07,19,07,5.40
2012,11,07,19,08,5.40
2012,11,07,19,09,5.40
2012,11,07,19,10,5.40
2012,11,07,19,11,5.40
2012,11,07,19,12,5.40
2012,11,07,19,13,5.40
2012,11,07,19,14,5.40
2012,11,07,19,15,5.40
2012,11,07,19,16,5.40
2012,11,07,19,17,5.40
2012,11,07,19,18,5.40
2012,11,07,19,19,5.40
2012,11,07,19,20,5.40
2012,11,07,19,21,5.50
2012,11,07,19,22,5.50
2012,11,07,19,23,5.50
2012,11,07,19,24,5.50
2012,11,07,19,25,5.50
2012,11,07,19,26,5.50
2012,11,07,19,27,5.50
2012,11,07,19,28,5.50
2012,11,07,19,29,5.50
2012,11,07,19,30,5.60
2012,11,07,19,31,5.60
2012,11,07,19,32,5.60
2012,11,07,19,34,5.60
2012,11,07,19,35,5.60
2012,11,07,19,36,5.50
2012,11,07,19,37,5.50
2012,11,07,19,38,5.50
2012,11,07,19,40,5.50
2012,11,07,19,41,5.50
2012,11,07,19,42,5.50
2012,11,07,19,44,5.50
2012,11,07,19,45,5.50
2012,11,07,19,46,5.50
2012,11,07,19,48,5.50
2012,11,07,19,49,5.40
2012,11,07,19,50,5.40
2012,11,07,19,52,5.40
2012,11,07,19,53,5.40
2012,11,07,19,54,5.40
2012,11,07,19,55,5.40
2012,11,07,19,57,5.40
2012,11,07,19,58,5.40
2012,11,07,20,00,5.40
2012,11,07,20,01,5.40
2012,11,07,20,02,5.50
2012,11,07,20,03,5.40
2012,11,07,20,04,5.40
2012,11,07,20,05,5.40
2012,11,07,20,07,5.40
2012,11,07,20,08,5.40
2012,11,07,20,09,5.40
2012,11,07,20,11,5.40
2012,11,07,20,12,5.40
2012,11,07,20,13,5.40
2012,11,07,20,15,5.40
2012,11,07,20,16,5.40
2012,11,07,20,17,5.40
2012,11,07,20,19,5.40
2012,11,07,20,20,5.40
2012,11,07,20,21,5.40
2012,11,07,20,23,5.40
2012,11,07,20,24,5.40
2012,11,07,20,25,5.40
2012,11,07,20,27,5.40
2012,11,07,20,28,5.40
2012,11,07,20,29,5.40
2012,11,07,20,30,5.40
2012,11,07,20,32,5.40
2012,11,07,20,33,5.40
2012,11,07,20,35,5.40
2012,11,07,20,36,5.40
2012,11,07,20,37,5.40
2012,11,07,20,38,5.40
2012,11,07,20,40,5.40
2012,11,07,20,41,5.40
2012,11,07,20,42,5.40
2012,11,07,20,43,5.40
2012,11,07,20,44,5.40
2012,11,07,20,45,5.40
2012,11,07,20,46,5.40
2012,11,07,20,47,5.40
2012,11,07,20,48,5.40
2012,11,07,20,50,5.40
2012,11,07,20,51,5.40
2012,11,07,20,52,5.40
2012,11,07,20,54,5.40